Weather in Komsomolskiy

Russia / Samara Oblast     53°07′22″N   52°09′40″E
temp.,
°C
wind,
m/s
gust,
m/s
humid.,
%
clouds,
%
prec.,
mm/h
press.,
hPa
HPBL,
m
7 march, sun
sun701:00−11nne2290100 0.0 101243
04:00−13nne2288100 0.0 101230
07:00−16n128536 0.0 101220
10:00−10wnw238018 0.0 1013244
13:00−7w35833 0.0 1013546
16:00−7wsw358642 0.0 1013515
19:00−11ssw379695 0.1 1012215
22:00−13s389897 0.1 1012187
8 march, mon
mon801:00−9ssw61394100 0.2 1008603
04:00−7ssw71593100 1.3 1005891
07:00−5ssw81791100 0.3 10021146
10:00−3sw91691100 1.6 10021157
13:00−1wsw81393100 0.9 10041177
16:00−2wsw71473100 1.4 10061583
19:00−5sw31088100 0.0 1006339
22:00−3ssw3798100 0.9 1007351
9 march, tue
tue901:00−3sw41097100 1.3 1005765
04:00−3wsw4996100 2.1 1004639
07:00−6wsw41194100 0.3 1005566
10:00−7w478997 0.3 1008422
13:00−5w2486100 0.0 1009500
16:00−5nw2387100 0.0 1009532
19:00−9nnw2595100 0.0 1009154
22:00−11nw2295100 0.0 101065
10 march, wed
wed1001:00−14nw359788 0.0 1010100
04:00−17wnw369789 0.0 1011125
07:00−18wnw3699100 0.0 1012128
10:00−14nw379399 0.1 1013363
13:00−12nw4690100 0.1 1015557
16:00−14nw4790100 0.1 1016549
19:00−17nw3895100 0.1 1017338
22:00−20nw379796 0.1 1019252
11 march, thu
thu1101:00−23nw369881 0.0 1020153
04:00−26nw369768 0.1 1022132
07:00−28nw23981 0.0 102475
10:00−22wnw34931 0.0 1025254
13:00−18w35892 0.0 1026404
16:00−17wsw478817 0.0 1025422
19:00−19wsw399779 0.1 1026355
22:00−20wsw269989 0.1 1027180